sat.trackr.live / text

‹ back to catalog

SITRO-AIS 44

NORAD 61748 · 2024-199P

PAYLOAD ACTIVE UNKNOWN

§ Identity

Operator
Country
CIS
Launch date
2024-11-04
Launch site
VOSTO
Launch vehicle
Mass (kg)
RCS (m²)

External: N2YO · Heavens-Above · Gunter

§ Orbital elements

Epoch: 2026-09-22T22:26:59.540640Z

Period
90.09 min
Inclination
97.2602°
Eccentricity
0.0004557
Mean motion
15.98479283 rev/d
Perigee alt
275.6 km
Apogee alt
281.7 km
Semi-major
6,656.8 km
B*
8.4338e-4
RAAN
150.4050°
Arg perigee
161.9526°
Mean anomaly
198.1915°
Rev number
15,321

§ Raw data

SITRO-AIS 441 61748U 24199P   26265.93541135  .00391976  65904-4  84338-3 0  99952 61748  97.2602 150.4050 0004557 161.9526 198.1915 15.98479283153212

JSON: /api/v1/satellites/61748 · /tle

For live sub-satellite position, see the globe view (requires WebGL).

§ Visibility from observer

Set your observer location to see the next 7 days of passes ≥ 10°. The values pass through the URL so the page stays shareable.

No JS? Fill the form by hand. The geolocation button needs JavaScript.

§ Radio — SatNOGS DB

ModeDescriptionDownlinkUplink
GMSK USP Mode U - GMSK2k4 - USP 401.165 MHz

1 transmitter · refreshed weekly from db.satnogs.org